Location: Burland Observatory
(39.4088°N, 105.4217°W)
Time: 10:06:04
(UTC-07:00)

SR - Pass Details

Date: 17 December 2019
Orbit: 574 x 882 km, 66.7° (Epoch: 28 January)

Event Time Altitude Azimuth Distance (km) Brightness Sun altitude
Rises 17:35:29 0° 322° (NW) 3,452 ? -10.5°
Reaches altitude 10° 17:38:14 10° 313° (NW) 2,484 ? -11.0°
Maximum altitude 17:43:18 33° 251° (WSW) 1,344 ? -11.9°
Drops below altitude 10° 17:48:04 10° 189° (S) 2,319 ? -12.8°
Sets 17:50:34 0° 179° (S) 3,191 ? -13.2°
